Location: Campbell Hill
(37.9301°N, 89.5490°W)
Time: 10:40:53
(UTC+00:00)

SL-08 R/B - Pass Details

Date: 07 November 2025
Orbit: 942 x 1007 km, 82.9° (Epoch: 07 December)

Event Time Altitude Azimuth Distance (km) Brightness Sun altitude
Rises 23:36:25 0° 173° (S) 3,642 7.6 -9.0°
Reaches altitude 10° 23:38:57 10° 170° (S) 2,690 6.9 -9.5°
Maximum altitude 23:44:58 59° 92° (E) 1,093 4.5 -10.7°
Drops below altitude 10° 23:50:56 10° 15° (NNE) 2,674 6.5 -11.8°
Sets 23:53:27 0° 12° (NNE) 3,618 7.2 -12.3°
